Location: *
(47.6569°N, 7.4256°E)
Time: 22:52:24
(UTC+00:00)

CZ-4B R/B - Pass Details

Date: 14 December 2019
Orbit: 809 x 881 km, 99.1° (Epoch: 18 January)

Event Time Altitude Azimuth Distance (km) Brightness Sun altitude
Rises 15:59:47 0° 162° (SSE) 3,335 6.5 -3.8°
Reaches altitude 10° 16:02:06 10° 162° (SSE) 2,414 5.8 -4.2°
Maximum altitude 16:07:27 88° 76° (ENE) 840 3.2 -4.9°
Drops below altitude 10° 16:12:57 10° 345° (NNW) 2,476 5.5 -5.8°
Sets 16:15:21 0° 346° (NNW) 3,427 6.2 -6.1°
